STARLINK-32564, 61924

Orbit data source: Space-Track

STARLINK-32564, 61924 is a payload satellite owned by SpaceX/Seattle (US) in LEO that was launched on Mon, 11 Nov 2024 UTC via an FALCON 9 launch vehicle from the Air Force Eastern Test Range (AFETR). Payload-class satellites include a variety of spacecraft equipped with specific instruments for various scientific and technological missions. These include communications satellites like Starlink; space stations such as the ISS; scientific satellites like the Hubble; Earth observation satellites from companies like Planet Labs, Umbra, and HawkEye 360; GPS; miniature CubeSats for education and research; and military/defense satellites.

Loading next visibility...
Identifier
61924, 2024-207N
Orbit
LEO
Country
Flag of USUS
Related business
Manufacturer
SpaceX/Seattle
Mission
Operational Commercial Communications
Bus & Motor
STARLINK V2M, Unknown motor
Mass
730 kg wet, ~700 kg dry
Launch date (UTC)
2024-11-11 (1 year ago)
Launch vehicle
FALCON 9
Launch site
Air Force Eastern Test Range (AFETR)
Object type
Payload
Rocket body
Debris
Shape & HBR
Box + 2 Pan, 17.7 m
Radar Cross Section
33.884 m², Large (>1 m²)

Expand to show TLE details & history
Last TLE update: 9 hours ago

TLE from 9 hours ago
0 STARLINK-32564
1 61924U 24207N   26073.23959286  .00036034  00000-0  13106-2 0  9998
2 61924  43.0005 259.8717 0001655 266.7715  93.2948 15.27628541 75374
Epoch: 2026-03-14T05:45Z
TLE epoch observation values (Epoch: 2026-03-14T05:45:00.823Z)
Latitude
0.00004°
Longitude
1.75469°
Altitude
482.745 km
Speed
7.626 km/s
True Right ascension
17h 19m 29s
True Declination
0° 00' 00"
Sunlit
Object was in daylight at epoch
Visualization orbit readout
Latitude
Unknown
Longitude
Unknown
Altitude
Unknown
Speed
Unknown
Apparent Right ascension
Unknown
Apparent Declination
Unknown
Sunlit
N/A
Visualization observer readout
Local Sidereal Time
19:17:18
Azimuth
Unknown
Elevation
Unknown
Doppler factor
Unknown
Orbital elements
Apogee altitude
485.985 km
Perigee altitude
483.713 km
Semi-major axis
6,862.986 km
Eccentricity
0.00017
Inclination
43.0005°
RAAN
259.8717°
Arg. of periapsis
266.7715°
True anomaly
93.31373°
Mean anomaly
93.2948°
Eccentric anomaly
93.30427°
Mean motion
3.81745 °/min
Orbital period
94.3 mins
BSTAR
0.0013106
Loading maneuver chart data...
Computing Atmospheric mass density...
Loading historical data...
Loading historical data...
Loading historical data...
Loading historical data...
Loading historical data...
Loading historical data...
Loading historical data...

Documentation

Showing up to 5 results
|